| time (UTC) | temp F | wind direction | speed MPH | gust MPH | rain 1hr in | rain 24hr in | rain mn in | humidity % | barometer mb |
| 20260510173047 | 67 | 150 | 1.0 | 2.0 | 0.00 | 0.00 | 0.00 | 34 | 1022.7 |
| 20260510171548 | 66 | 274 | 1.0 | 1.0 | 0.00 | 0.00 | 0.00 | 35 | 1022.8 |
| 20260510170053 | 65 | 75 | 3.0 | 4.0 | 0.00 | 0.00 | 0.00 | 35 | 1022.7 |
| 20260510164555 | 63 | 41 | 2.0 | 3.0 | 0.00 | 0.00 | 0.00 | 35 | 1022.6 |
| 20260510163050 | 63 | 100 | 2.0 | 2.0 | 0.00 | 0.00 | 0.00 | 37 | 1022.7 |
| 20260510161547 | 63 | 162 | 1.0 | 1.0 | 0.00 | 0.00 | 0.00 | 37 | 1022.7 |
| 20260510160048 | 62 | 235 | 1.0 | 1.0 | 0.00 | 0.00 | 0.00 | 37 | 1022.4 |
| 20260510154551 | 60 | 84 | 1.0 | 2.0 | 0.00 | 0.00 | 0.00 | 42 | 1022.4 |
| 20260510153051 | 60 | 85 | 3.0 | 3.0 | 0.00 | 0.00 | 0.00 | 42 | 1022.5 |
| 20260510151556 | 59 | 90 | 3.0 | 4.0 | 0.00 | 0.00 | 0.00 | 42 | 1022.5 |
| 20260510150059 | 58 | 91 | 2.0 | 5.0 | 0.00 | 0.00 | 0.00 | 42 | 1022.4 |
| 20260510144604 | 58 | 115 | 1.0 | 2.0 | 0.00 | 0.00 | 0.00 | 42 | 1022.1 |
| 20260510143059 | 57 | 126 | 3.0 | 3.0 | 0.00 | 0.00 | 0.00 | 43 | 1022.0 |
| 20260510141552 | 56 | 144 | 1.0 | 5.0 | 0.00 | 0.00 | 0.00 | 43 | 1021.7 |
| 20260510140055 | 56 | 79 | 2.0 | 2.0 | 0.00 | 0.00 | 0.00 | 43 | 1021.7 |
| 20260510134549 | 56 | 88 | 3.0 | 4.0 | 0.00 | 0.00 | 0.00 | 51 | 1021.4 |
| 20260510133050 | 55 | 61 | 2.0 | 3.0 | 0.00 | 0.00 | 0.00 | 51 | 1021.1 |
| 20260510131554 | 55 | 57 | 0.0 | 1.0 | 0.00 | 0.00 | 0.00 | 51 | 1020.9 |
| 20260510130056 | 55 | 100 | 0.0 | 1.0 | 0.00 | 0.00 | 0.00 | 49 | 1021.2 |
| 20260510124548 | 55 | 119 | 1.0 | 1.0 | 0.00 | 0.00 | 0.00 | 49 | 1020.8 |
| 20260510123055 | 54 | 129 | 1.0 | 7.0 | 0.00 | 0.00 | 0.00 | 49 | 1020.3 |
| 20260510121551 | 54 | 77 | 0.0 | 1.0 | 0.00 | 0.00 | 0.00 | 49 | 1020.1 |
| 20260510120055 | 54 | 71 | 1.0 | 2.0 | 0.00 | 0.00 | 0.00 | 49 | 1020.1 |
| 20260510114553 | 54 | 59 | 2.0 | 4.0 | 0.00 | 0.00 | 0.00 | 49 | 1020.0 |
| 20260510113059 | 55 | 0 | 0.0 | 2.0 | 0.00 | 0.00 | 0.00 | 44 | 1019.5 |
| 20260510111551 | 56 | 103 | 1.0 | 3.0 | 0.00 | 0.00 | 0.00 | 44 | 1019.5 |
| 20260510110052 | 56 | 59 | 2.0 | 4.0 | 0.00 | 0.00 | 0.00 | 44 | 1019.1 |
| 20260510104554 | 56 | 71 | 2.0 | 3.0 | 0.00 | 0.00 | 0.00 | 50 | 1018.8 |
| 20260510103054 | 57 | 69 | 2.0 | 3.0 | 0.00 | 0.00 | 0.00 | 50 | 1018.7 |
| 20260510101556 | 57 | 92 | 2.0 | 2.0 | 0.00 | 0.00 | 0.00 | 50 | 1018.8 |
| 20260510094555 | 57 | 73 | 1.0 | 2.0 | 0.00 | 0.00 | 0.00 | 53 | 1018.5 |
| 20260510093100 | 57 | 75 | 4.0 | 4.0 | 0.00 | 0.00 | 0.00 | 53 | 1018.1 |
| 20260510091548 | 57 | 57 | 1.0 | 1.0 | 0.00 | 0.00 | 0.00 | 57 | 1018.1 |
| 20260510090047 | 58 | 76 | 0.0 | 1.0 | 0.00 | 0.00 | 0.00 | 57 | 1017.6 |
| 20260510084550 | 59 | 91 | 1.0 | 4.0 | 0.00 | 0.00 | 0.00 | 57 | 1017.5 |
| 20260510083048 | 59 | 76 | 1.0 | 2.0 | 0.00 | 0.00 | 0.00 | 60 | 1017.2 |
| 20260510081551 | 59 | 71 | 3.0 | 5.0 | 0.00 | 0.00 | 0.00 | 60 | 1017.1 |
| 20260510080055 | 60 | 69 | 2.0 | 2.0 | 0.00 | 0.00 | 0.00 | 61 | 1016.6 |
| 20260510074552 | 60 | 69 | 1.0 | 4.0 | 0.00 | 0.00 | 0.00 | 61 | 1016.1 |
| 20260510073110 | 60 | 89 | 3.0 | 3.0 | 0.00 | 0.00 | 0.00 | 61 | 1015.9 |
| 20260510071553 | 60 | 84 | 0.0 | 4.0 | 0.00 | 0.00 | 0.00 | 60 | 1016.1 |
| 20260510064614 | 61 | 84 | 1.0 | 2.0 | 0.00 | 0.00 | 0.00 | 60 | 1015.9 |
| 20260510063045 | 61 | 0 | 0.0 | 2.0 | 0.00 | 0.00 | 0.00 | 56 | 1015.9 |
| 20260510061550 | 62 | 0 | 0.0 | 1.0 | 0.00 | 0.00 | 0.00 | 56 | 1015.7 |
| 20260510060051 | 63 | 0 | 0.0 | 1.0 | 0.00 | 0.00 | 0.00 | 56 | 1015.4 |
| 20260510054549 | 63 | 0 | 0.0 | 1.0 | 0.00 | 0.00 | 0.00 | 58 | 1015.1 |
| 20260510053049 | 63 | 344 | 0.0 | 2.0 | 0.00 | 0.00 | 0.00 | 58 | 1014.9 |
| 20260510051552 | 62 | 77 | 1.0 | 1.0 | 0.00 | 0.00 | 0.00 | 58 | 1014.8 |
| 20260510050056 | 63 | 0 | 0.0 | 0.0 | 0.00 | 0.00 | 0.00 | 57 | 1014.6 |
| 20260510044551 | 63 | 0 | 0.0 | 0.0 | 0.00 | 0.00 | 0.00 | 57 | 1014.8 |
| 20260510043050 | 63 | 0 | 0.0 | 0.0 | 0.00 | 0.00 | 0.00 | 57 | 1014.4 |
| 20260510041550 | 64 | 0 | 0.0 | 0.0 | 0.00 | 0.00 | 0.00 | 57 | 1014.1 |
| 20260510040050 | 64 | 65 | 0.0 | 0.0 | 0.00 | 0.00 | 0.00 | 57 | 1014.0 |
| 20260510034608 | 63 | 0 | 0.0 | 0.0 | 0.00 | 0.00 | 0.00 | 57 | 1013.4 |
| 20260510033052 | 63 | 0 | 0.0 | 0.0 | 0.00 | 0.00 | 0.00 | 57 | 1013.3 |
| 20260510031551 | 64 | 0 | 0.0 | 0.0 | 0.00 | 0.00 | 0.00 | 57 | 1013.0 |
| 20260510030053 | 64 | 0 | 0.0 | 0.0 | 0.00 | 0.00 | 0.00 | 57 | 1012.5 |
| 20260510024547 | 64 | 0 | 0.0 | 0.0 | 0.00 | 0.00 | 0.00 | 51 | 1012.1 |
| 20260510023047 | 66 | 360 | 0.0 | 0.0 | 0.00 | 0.00 | 0.00 | 51 | 1011.9 |
| 20260510021557 | 66 | 0 | 0.0 | 0.0 | 0.00 | 0.00 | 0.00 | 51 | 1011.4 |
| 20260510020052 | 68 | 0 | 0.0 | 0.0 | 0.00 | 0.00 | 0.00 | 42 | 1011.1 |
| 20260510014554 | 70 | 0 | 0.0 | 0.0 | 0.00 | 0.00 | 0.00 | 42 | 1010.7 |
| 20260510013051 | 72 | 111 | 0.0 | 0.0 | 0.00 | 0.00 | 0.00 | 42 | 1010.3 |
| 20260510011547 | 72 | 100 | 0.0 | 1.0 | 0.00 | 0.00 | 0.00 | 38 | 1010.0 |
| 20260510010046 | 73 | 67 | 2.0 | 2.0 | 0.00 | 0.00 | 0.00 | 38 | 1009.8 |
| 20260510004551 | 73 | 286 | 0.0 | 6.0 | 0.00 | 0.00 | 0.00 | 36 | 1009.5 |
| 20260510003103 | 74 | 61 | 2.0 | 3.0 | 0.00 | 0.00 | 0.00 | 36 | 1009.4 |
| 20260510001553 | 74 | 65 | 2.0 | 9.0 | 0.00 | 0.00 | 0.00 | 36 | 1009.3 |
| 20260510000114 | 76 | 49 | 3.0 | 4.0 | 0.00 | 0.00 | 0.00 | 35 | 1009.1 |
| 20260509234550 | 76 | 49 | 2.0 | 7.0 | 0.00 | 0.00 | 0.00 | 35 | 1008.9 |
| 20260509233051 | 76 | 54 | 3.0 | 8.0 | 0.00 | 0.00 | 0.00 | 35 | 1009.0 |
| 20260509231553 | 78 | 79 | 3.0 | 4.0 | 0.00 | 0.00 | 0.00 | 36 | 1008.9 |
| 20260509230057 | 78 | 77 | 2.0 | 9.0 | 0.00 | 0.00 | 0.00 | 36 | 1008.8 |
| 20260509224547 | 79 | 57 | 2.0 | 3.0 | 0.00 | 0.00 | 0.00 | 36 | 1008.7 |
| 20260509223056 | 79 | 310 | 3.0 | 8.0 | 0.00 | 0.00 | 0.00 | 32 | 1008.5 |
| 20260509221559 | 82 | 290 | 5.0 | 5.0 | 0.00 | 0.00 | 0.00 | 32 | 1008.2 |
| 20260509220047 | 82 | 333 | 5.0 | 5.0 | 0.00 | 0.00 | 0.00 | 32 | 1008.0 |
| 20260509214602 | 82 | 252 | 5.0 | 7.0 | 0.00 | 0.00 | 0.00 | 33 | 1008.0 |
| 20260509213050 | 81 | 92 | 1.0 | 3.0 | 0.00 | 0.00 | 0.00 | 33 | 1007.9 |
| 20260509211549 | 80 | 274 | 4.0 | 4.0 | 0.00 | 0.00 | 0.00 | 33 | 1008.0 |
| 20260509210049 | 80 | 242 | 4.0 | 13.0 | 0.00 | 0.00 | 0.00 | 35 | 1008.0 |
| 20260509204550 | 80 | 267 | 9.0 | 10.0 | 0.00 | 0.00 | 0.00 | 35 | 1008.3 |
| 20260509203049 | 80 | 270 | 3.0 | 9.0 | 0.00 | 0.00 | 0.00 | 35 | 1008.4 |
| 20260509201548 | 80 | 302 | 3.0 | 6.0 | 0.00 | 0.00 | 0.00 | 32 | 1008.4 |
| 20260509194555 | 81 | 282 | 8.0 | 8.0 | 0.00 | 0.01 | 0.00 | 32 | 1008.2 |
| 20260509193053 | 82 | 255 | 10.0 | 11.0 | 0.00 | 0.01 | 0.00 | 31 | 1008.1 |
| 20260509191551 | 82 | 283 | 7.0 | 7.0 | 0.00 | 0.01 | 0.00 | 31 | 1008.1 |
| 20260509190051 | 82 | 291 | 6.0 | 8.0 | 0.00 | 0.01 | 0.00 | 31 | 1008.2 |
| 20260509184552 | 81 | 158 | 7.0 | 7.0 | 0.00 | 0.01 | 0.00 | 35 | 1008.5 |
| 20260509183102 | 82 | 232 | 4.0 | 8.0 | 0.00 | 0.01 | 0.00 | 35 | 1008.4 |
| 20260509181549 | 80 | 284 | 3.0 | 4.0 | 0.00 | 0.01 | 0.00 | 35 | 1008.6 |
| 20260509180058 | 80 | 286 | 9.0 | 12.0 | 0.00 | 0.01 | 0.00 | 35 | 1008.7 |
| 20260509174556 | 81 | 257 | 4.0 | 8.0 | 0.00 | 0.01 | 0.00 | 35 | 1008.8 |